LRFT Weather Reports


time (UTC)temp
F
wind
direction
speed
knots
gust
knots
rain 1hr
in
rain 24hr
in
rain mn
in
humidity
%
barometer
mb
20260504224853 0 0.0 0.0 0.00 0.00 0.00
20260504223356 0 0.0 0.0 0.00 0.00 0.00
20260504221919 0 0.0 0.0 0.00 0.00 0.00
20260504220356 0 0.0 0.0 0.00 0.00 0.00
20260504214856 46 150 6.1 0.0 0.00 0.00 0.00 76 1016.0
20260504213415 46 150 6.1 0.0 0.00 0.00 0.00 76 1016.0
20260504211859 46 150 6.1 0.0 0.00 0.00 0.00 76 1016.0
20260504210359 46 150 6.1 0.0 0.00 0.00 0.00 76 1016.0
20260504204856 48 150 6.1 0.0 0.00 0.00 0.00 71 1016.0
20260504203401 48 150 6.1 0.0 0.00 0.00 0.00 71 1016.0
20260504201856 48 150 6.1 0.0 0.00 0.00 0.00 71 1016.0
20260504200400 48 150 6.1 0.0 0.00 0.00 0.00 71 1016.0
20260504194900 48 150 6.1 0.0 0.00 0.00 0.00 76 1016.0
20260504193400 48 150 6.1 0.0 0.00 0.00 0.00 76 1016.0
20260504191859 48 150 6.1 0.0 0.00 0.00 0.00 76 1016.0
20260504190400 48 150 6.1 0.0 0.00 0.00 0.00 76 1016.0
20260504184857 0 0.0 0.0 0.00 0.00 0.00
20260504183410 0 0.0 0.0 0.00 0.00 0.00
20260504181900 0 0.0 0.0 0.00 0.00 0.00
20260504180400 0 0.0 0.0 0.00 0.00 0.00
20260504174900 59 150 1.7 0.0 0.00 0.00 0.00 55 1015.0
20260504173400 59 150 1.7 0.0 0.00 0.00 0.00 55 1015.0
20260504171859 59 150 1.7 0.0 0.00 0.00 0.00 55 1015.0
20260504170359 59 150 1.7 0.0 0.00 0.00 0.00 55 1015.0
20260504160400 57 120 6.1 0.0 0.00 0.00 0.00 67 1015.0
20260504150359 64 30 6.1 0.0 0.00 0.00 0.00 46 1015.0
20260504140400 68 30 9.6 0.0 0.00 0.00 0.00 35 1015.0
20260504130359 66 30 9.6 0.0 0.00 0.00 0.00 40 1015.0
20260504110400 66 20 12.2 0.0 0.00 0.00 0.00 32 1016.0
20260504100359 63 350 9.6 0.0 0.00 0.00 0.00 45 1016.0
20260504081859 59 350 7.8 0.0 0.00 0.00 0.00 51 1016.0
20260504080359 59 350 7.8 0.0 0.00 0.00 0.00 51 1016.0
20260504070401 0 0.0 0.0 0.00 0.00 0.00
20260504050409 41 330 12.2 0.0 0.00 0.00 0.00 81 1016.0
20260504044900 37 330 8.7 0.0 0.00 0.00 0.00 87 1016.0
20260504043359 37 330 8.7 0.0 0.00 0.00 0.00 87 1016.0
20260504041900 37 330 8.7 0.0 0.00 0.00 0.00 87 1016.0
20260504040359 37 330 8.7 0.0 0.00 0.00 0.00 87 1016.0
20260504034900 37 330 7.8 0.0 0.00 0.00 0.00 81 1016.0
20260504033359 37 330 7.8 0.0 0.00 0.00 0.00 81 1016.0
20260504031856 37 330 7.8 0.0 0.00 0.00 0.00 81 1016.0
20260504030524 0 0.0 0.0 0.00 0.00 0.00
20260504024857 0 0.0 0.0 0.00 0.00 0.00
20260504023359 0 0.0 0.0 0.00 0.00 0.00
20260504021856 0 0.0 0.0 0.00 0.00 0.00
20260504020400 0 0.0 0.0 0.00 0.00 0.00
20260504014900 0 0.0 0.0 0.00 0.00 0.00
20260504013405 0 0.0 0.0 0.00 0.00 0.00
20260504012023 0 0.0 0.0 0.00 0.00 0.00
20260504010400 0 0.0 0.0 0.00 0.00 0.00
20260504005023 0 0.0 0.0 0.00 0.00 0.00
20260504003359 0 0.0 0.0 0.00 0.00 0.00
20260504001900 0 0.0 0.0 0.00 0.00 0.00
20260504000401 0 0.0 0.0 0.00 0.00 0.00
20260503234936 39 90 5.2 0.0 0.00 0.00 0.00 81 1018.0
20260503233359 39 90 5.2 0.0 0.00 0.00 0.00 81 1018.0
20260503231900 0 0.0 0.0 0.00 0.00 0.00
20260503230412 0 0.0 0.0 0.00 0.00 0.00